Trail de l'Abbaye
Course à pied Villers-la-Ville, 02/10/2021, BEL
31.42km - Resultaat
31.42km 
Categorie
PosNrNaamLeef.IOCLigaClubWerkelijkeTijdTkmGem.PlaatsNaamGemeente
1.720VAN LOKEREN STIJN41BEL2:09:042:09:064:07 14.601homSINT-PAUWELS
2.363KAYENBERGH STIJN26BEL2:14:352:14:394:18 14.002homVOSSEM
3.427THIRY SAMUEL34BEL2:18:052:18:074:24 13.653homCHASTRE
4.392DELATTRE LOUIS23BEL2:20:262:20:294:29 13.424homROISIN
5.419DALAIDEN QUENTIN28BEL2:22:092:22:144:32 13.265homOTTIGNIES
6.319VANDEWALLE VIRGILE29BEL2:23:092:23:124:34 13.176homIXELLES
7.223DESSY VALENTIN30BEL2:25:282:25:314:38 12.967homARSIMONT
8.308MORTON TIMOTHY47BEL2:25:472:25:564:39 12.928homSART-DAMES-AVELINES
9.463REYNTENS GABRIEL36BEL2:27:372:27:464:43 12.769homMOLENBEEK SAINT JEAN
10.263WENZEL SYLVAIN49FRA2:30:252:30:354:48 12.5210homREBREUVE-RANCHICOURT
11.357SCHOUMACKERS BENOÎT47BEL2:30:442:30:474:48 12.5011homHUY
12.434DETOURNAIJ OLIVIER36BEL2:32:172:32:224:51 12.3712homBRUXELLES
13.435BROUYAUX MATTHIEU34BEL2:32:382:32:444:52 12.3413homOTTIGNIES
14.793DU BOIS PIERRE-YVES29BEL2:33:322:33:454:54 12.2614homNAMUR
15.462POGGI ELIO33BEL2:33:492:33:534:54 12.2515homOTTIGNIES
16.296RIGAULT MATHIEU37FRA2:33:472:34:014:55 12.2416homNIVELLES
17.288VERBESSELT KEVIN41BEL2:34:262:34:314:56 12.2017homBRAINE-LE-COMTE
18.234GIVRON RÉGIS31BEL2:36:002:36:044:59 12.0818homMARCINELLE
19.438LECOMTE CLÉMENT27BEL2:36:402:36:435:00 12.0319homMONS
20.301DUMAS BASTIEN25FRA2:36:522:37:055:00 12.0020homLOUVAIN-LA-NEUVE
21.314DEGREZ FRANÇOIS36BEL2:37:112:37:135:01 11.9921homNAMUR
22.794EVAN NOEL18BEL2:39:282:39:315:05 11.8222homNISMES
23.217VERBRUGGEN YVES34BEL2:39:282:39:315:05 11.8223homNISMES
24.716JASSOGNE YONEC42BEL2:40:292:40:335:07 11.7424homCORBAIS
25.712VANEGHEM BERTRAND51BEL2:40:532:41:025:08 11.7125homDION-VALMONT
26.684COLLIGNON THOMAS35BEL2:41:312:41:395:09 11.6626homTOURINNES-ST-LAMBERT
27.326SCHULLER GRÉGORY34BEL2:42:022:42:165:10 11.6227homWEMMEL
28.380VANDENTEMPEL OLIVIER47BEL2:42:092:42:225:11 11.6128homWATERMAEL-BOITSFORT
29.219VERBIST DIMITRI38BEL2:46:062:46:095:18 11.3529homTESSENDERLO
30.687DURVIAUX ANTOINE27BEL2:46:022:46:115:18 11.3430homLOUVAIN LA NEUVE
31.446CAPOUET MATHIEU40BEL2:46:312:46:395:19 11.3131homFRASNES LEZ GOSSELIES (BE
32.365BUTAYE OLIVIER40BEL2:47:022:47:095:20 11.2832homBAULERS
33.439DELGRANGE MAXIME27FRA2:47:202:47:235:20 11.2633homVILLERS LA VILLE
34.415LAMAUDIÈRE STÉPHANE49FRA2:48:002:48:135:22 11.2134homIXELLES
35.362ROLAND RAPHAËL40BEL2:48:222:48:295:22 11.1935homBRAINE-LE-CHÂTEAU
36.267MARCHAND PIERRE40BEL2:49:182:49:265:24 11.1336homWAUTHIER-BRAINE
37.366NR 366 XXX2:49:182:49:265:24 11.1337hom
38.327LELIÈVRE THIERRY49BEL2:50:162:50:305:26 11.0638homJETTE
39.505LECHIEN LIONEL38BEL2:50:322:50:505:27 11.0439homTERVUREN
40.292DE BLANDER GEERT57BEL2:51:182:51:315:28 10.9940homSCHELDEWINDEKE
41.282VERSTRAET FLORENT21FRA2:51:222:51:315:28 10.9941homHOUDAIN
42.364WAUCAMPT DENIS43BEL2:52:072:52:095:29 10.9542homHUMBEEK
43.283URBAIN BAUDOUIN50BEL2:53:192:53:225:32 10.8743homGOUY-LEZ-PIÉTON
44.276FLAMBERT ANNE-SOPHIE33BEL2:54:022:54:085:33 10.831damOTTIGNIES
45.371BUCHELOT NICOLAS25BEL2:57:392:57:515:40 10.6044homRIXENSART
46.271VANDENPLAS KEVIN34BEL2:58:312:58:395:42 10.5545homTILLY
47.278WILLEMS GUNTER42BEL2:58:312:58:455:42 10.5546homJAUCHE
48.211FRANCHE FLORENTIN27BEL2:59:062:59:105:43 10.5247homETTERBEEK
49.280TURELINCKX KURT41BEL2:59:222:59:375:43 10.5048homBETEKOM
50.207EL KHOURY GEBRINE63BEL2:49:182:59:385:44 10.5049homWOLUWE SAINT ÉTIENNE
DNF: abandon; DSQ: disqualifié; Vitesse en km/h
25/06/2022 - 05:45 - 160 Inputs
ChronoRace - Electronic Timing SPRL
http://www.chronorace.be

Page 1 / 4  
Trail de l'Abbaye
Course à pied Villers-la-Ville, 02/10/2021, BEL
31.42km - Resultaat
31.42km 
Categorie
PosNrNaamLeef.IOCLigaClubWerkelijkeTijdTkmGem.PlaatsNaamGemeente
51.443LORY KESTENS28BEL3:00:003:00:035:44 10.4750homBRAINE-LE-COMTE
52.437HENRY VINCENT46BEL3:00:563:01:045:46 10.4151homCHASTRE
53.402COCQUEREAUX ERIK47BEL3:00:453:01:045:46 10.4152homRHODE-SAINT-GENESE
54.225LAPY FRANÇOIS40BEL3:01:463:01:555:48 10.3653homLIMELETTE
55.449CALCAGNILE LEVI34BEL3:01:593:02:135:48 10.3554homSINT-LAMBRECHTS-HERK
56.431JONARD FRANÇOIS-DAVID43BEL3:03:433:03:505:52 10.2655homCOURT SAINT ETIENNE
57.293MOERMAN JONAS47BEL3:03:573:04:225:53 10.2356homLLN
58.382GOBBE PHILIPPE56BEL3:04:583:05:085:54 10.1857homMELLET
59.313COUPIN PATRICK49BEL3:09:353:09:516:03 9.9358homZAVENTEM
60.359FOCANT CLAUDY30BEL3:10:203:10:266:04 9.9059homAUDERGHEM
61.487RASSEAUX DAMIEN41BEL3:10:023:10:296:04 9.9060homIXELLES
62.790MAGIS ALVARIC33BEL3:10:243:10:376:04 9.8961homVILLERS-LA-VILLE
63.369LARACHI SOFIAN31BEL3:10:263:10:376:04 9.8962homWOLUWE SAINT-LAMBERT
64.789MORREN JÉRÉMY31BEL3:10:263:10:376:04 9.8963homLUSTIN
65.698DESCAMPE ARNAUD33BEL3:10:263:10:376:04 9.8964homWALHAIN
66.368DEMOLDER YOANN31BEL3:10:253:10:386:05 9.8965homLOUVAIN-LA-NEUVE
67.367BOULET ETIENNE40BEL3:11:473:11:546:07 9.8266homNIVELLES
68.753THENAERS PHILIP54BEL3:02:233:13:056:09 9.7667homAARTSELAAR
69.269MORIS LAURENT47BEL3:12:523:13:056:09 9.7668homBRUXELLES
70.701MAROT PHILIPPE44BEL3:13:313:13:396:10 9.7469homCHASTRE-VILLER.-BLANMONT
71.385GUERRERO DIEGO50ESP3:16:393:16:446:16 9.5870homBRAINE L’ALLEUD
72.298DELAERE CHRISTOPHE58BEL3:16:383:16:536:16 9.5871homBRUSSEL
73.257GIRAUD JULIAN26FRA3:17:443:17:506:18 9.5372homLOUPOIGNE
74.403ANTROPOVSKI VADIM24BEL3:17:503:18:026:19 9.5273homSOUVRET
75.309DEWAEL NICOLAS27BEL3:18:553:19:046:21 9.4774homCÉROUX-MOUSTY
76.679BORREMANS FRÉDÉRIC44BEL3:18:583:19:076:21 9.4775homCÉROUX MOUSTY
77.230BANCIELLA FERNANDO47ESP3:19:013:19:106:21 9.4776homANTWERPEN
78.323HENNEBERT YANNICK51FRA3:19:173:19:226:21 9.4677homLEVAL
79.797BELLET STEPHANE49FRA3:19:263:19:436:22 9.4478homUCCLE
80.354FORGE KEVIN29BEL3:19:533:20:036:23 9.4279homHOUDENG-GOEGNIES
81.778FCAPIZZI VINCENZA43BEL3:20:023:20:166:23 9.412damWEMMEL
82.430FLEROY STÉPHANIE43BEL3:20:093:20:316:23 9.403damBINCHE
83.436VAN LANDUYT BENJAMIN46BEL3:20:473:21:106:25 9.3780homWONDELGEM
84.377VAN CAUTER STIJN26BEL3:21:193:21:406:26 9.3581homBRUSSELS
85.261GOFFINET DAVID33BEL3:21:353:21:546:26 9.3482homBRUXELLES
86.155VAN GOOL SANDER28BEL3:19:093:22:456:28 9.3083homANTWERPEN
87.718THUNS ANTONIN35BEL3:24:103:24:256:31 9.2284homBRUXELLES
88.325FLISON MYRIAM48FRA3:24:313:24:366:31 9.214damHAULCHIN
89.222FBURON MARIE43BEL3:24:323:24:396:31 9.215damJODOIGNE
90.713GARCIA JOAQUIN52ESP3:24:483:24:536:32 9.2085homCHAUMONT GISTOUX
91.685CACHEUX JEAN-NOËL49BEL3:24:583:25:106:32 9.1986homUCCLE
92.420DECLERCQ PIERRE53BEL3:25:043:25:116:32 9.1987homSIVRY
93.417HOUSSIERE ANTOINE39BEL3:24:593:25:116:32 9.1988homBRUXELLES
94.791FBERNARD KATTY46BEL3:25:173:25:296:33 9.176damTOURPES
95.214LEMOINE FABIAN40BEL3:25:173:25:306:33 9.1789homTHUMAIDE
96.312LECOMTE OLIVIER36FRA3:25:293:25:336:33 9.1790homMONT-SAINT-GUIBERT
97.215DESQUESNES VINCENT49BEL3:25:533:26:116:34 9.1491homSAINT SERVAIS
98.788LEPOUTRE FREDERIC43BEL3:25:563:26:146:34 9.1492homOPHAIN
99.331CLERCQ BENJAMIN31BEL3:26:243:26:326:35 9.1393homGESVES
100.696LEROY DANIEL43BEL3:27:163:27:326:37 9.0894homLES BONS VILLERS
DNF: abandon; DSQ: disqualifié; Vitesse en km/h
25/06/2022 - 05:45 - 160 Inputs
ChronoRace - Electronic Timing SPRL
http://www.chronorace.be

Page 2 / 4  
Trail de l'Abbaye
Course à pied Villers-la-Ville, 02/10/2021, BEL
31.42km - Resultaat
31.42km 
Categorie
PosNrNaamLeef.IOCLigaClubWerkelijkeTijdTkmGem.PlaatsNaamGemeente
101.227BIBIAN MATHIEU37FRA3:27:323:27:526:37 9.0795homGEMBLOUX
102.697DECEUNINCK STEPHAN48BEL3:28:303:28:476:39 9.0396homREVES
103.273BAUDEAU JULIEN44BEL3:29:083:29:176:40 9.0197homGERPINNES
104.213MARCHAND MAXIME39BEL3:29:243:29:456:41 8.9998homGEMBLOUX
105.381LALIEU XAVIER38BEL3:29:263:29:486:41 8.9999homSCHAERBEEK
106.290VANBLAERE FREDERIC54BEL3:31:483:31:526:45 8.90100homBIERGES
107.451FHINZ EMANUELA36DEU3:32:533:33:226:48 8.847damGREVENBROICH
108.311VAN REGENMORTEL STIJN43BEL3:33:413:33:536:49 8.81101homLINT
109.307DEHOUCK FRANCOIS38BEL3:33:463:33:586:49 8.81102homBRUXELLES
110.680MERCENIER BENOÎT45BEL3:33:433:34:076:49 8.80103homOTTIGNIES-LOUVAIN-LA-NEUV
111.798GOSSERIES LIONEL44BEL3:34:093:34:326:50 8.79104homLASNE
112.440GEORGERY PHILIPPE57BEL3:36:193:36:406:54 8.70105homVIEUX-GENAPPE
113.237THOMAS DENI55BEL3:37:253:37:486:56 8.66106homSENEFFE
114.703BISCOS DAVID48BEL3:37:533:37:576:57 8.65107homPERWEZ
115.172FLANNOY VALÉRIE35BEL3:28:373:38:146:57 8.648damVERLAINE
116.266MATHIEU JACQUES54BEL3:39:403:39:577:01 8.57108homCERFONTAINE
117.424MARMIGNON ARY38BEL3:39:403:39:577:01 8.57109homSENZEILLE
118.444ROUCOURT LOUIS28BEL3:40:413:40:477:02 8.54110homGEMBLOUX
119.670CHEVALIER JEAN55BEL3:40:423:41:007:02 8.53111homPETIT-ROEULX-LEZ-NIVELLES
120.378LEPOUTRE VINCENT49BEL3:42:033:42:307:05 8.47112homKAIN
121.514VERBEEK JEAN-LUC67BEL3:45:023:45:237:11 8.36113homBOUSVAL
122.372BROUILLARD JULIEN29BEL3:45:283:45:487:12 8.35114homLEUZE EN HAINAUT
123.398MASURE JONATHAN34BEL3:45:313:45:507:12 8.35115homLA LOUVIÈRE
124.714LANDELOOS BERNARD48BEL3:45:463:45:537:12 8.35116homBIERBEEK
125.302PIRON JEREMY38BEL3:48:303:48:457:17 8.24117homPIETREBAIS
126.291GERICKE PHILIPPE44BEL3:48:333:48:477:17 8.24118homGREZ
127.262BROADY KEVIN33BEL3:48:573:49:257:19 8.22119homWOLUWE ST LAMBERT
128.329BAUFAY WALTER65BEL3:49:243:49:307:19 8.21120homTEMPLOUX
129.442JANSSENS RUDI54BEL3:49:413:49:557:20 8.20121homTERNAT
130.784VANDERBECQ CEDRIC39BEL3:50:013:50:217:20 8.18122homGRATY
131.210MATHOUX SÉBASTIEN42BEL3:50:023:50:227:20 8.18123homENGHIEN
132.330BALBO LIVIO30BEL3:51:193:51:307:23 8.14124homMOULBAIX
133.318FMOYAERTS NATHALIE31BEL3:51:203:51:317:23 8.149damMOULBAIX
134.512GOORIS VINCENT54BEL3:51:393:51:487:23 8.13125homMELIN
135.216FDE STOBBELEIR KATLEEN43BEL3:52:423:53:007:25 8.0910damLOCHRISTI
136.274MOMMENS GUY58BEL3:53:193:53:287:26 8.08126homBEERSE
137.677FCICCARELLI SOUMINA39BEL3:54:453:55:007:29 8.0211damUCCLE
138.678MUSEUR CHRIDTOPHE39BEL3:54:463:55:007:29 8.02127homUCCLE
139.748FANONYMOUS .53BEL3:41:593:56:587:33 7.9612damKOOIGEM
140.776CARPANTIER JEAN-JACQUES66BEL3:57:363:57:547:35 7.92128homRIXENSART
141.405HOTAT MICHEL52BEL3:58:183:58:277:36 7.91129homMONT-SAINT-GUIBERT
142.361DECROM FLORENT31BEL3:58:523:58:597:37 7.89130homHOUDENG - AIMERIES
143.422SEMET JEAN-PAUL55BEL3:59:473:59:587:39 7.86131homGAURAIN RX
144.486SCHENA XAVIER45BEL4:00:234:00:507:40 7.83132homSART-DAMES-AVELINES
145.310SUTTELS KRISTOF40BEL4:02:214:02:407:44 7.77133homLEEFDAAL
146.792ROGIE TOM47BEL4:04:054:04:277:47 7.71134homMARKE
147.461FSKUBISZEWSKA JOLANTA47POL4:04:424:05:077:49 7.6913damATH
148.418WITTEVRONGEL KOEN57BEL4:08:054:08:317:55 7.59135homSPIERE
149.654FSTAVART MARIE24BEL4:11:044:21:348:20 7.2114damCOURT-ST-ETIENNE
150.655FSTEENS MAGALIE48BEL4:11:044:21:348:20 7.2115damCOURT-ST-ETIENNE
DNF: abandon; DSQ: disqualifié; Vitesse en km/h
25/06/2022 - 05:45 - 160 Inputs
ChronoRace - Electronic Timing SPRL
http://www.chronorace.be

Page 3 / 4  
Trail de l'Abbaye
Course à pied Villers-la-Ville, 02/10/2021, BEL
31.42km - Resultaat
31.42km 
Categorie
PosNrNaamLeef.IOCLigaClubWerkelijkeTijdTkmGem.PlaatsNaamGemeente
151.209FVANDERLIN CHARLÈNE27BEL4:22:524:23:178:23 7.1616damCLABECQ
152.383FHOCK FRANÇOISE56BEL4:27:154:27:418:32 7.0417dam1340 OTTIGNIES
153.699FDE MUNTER VIRGINIE34BEL4:33:494:33:558:44 6.8818damBRUXELLES
154.541FMARIQUE PATRICIA46BEL4:38:334:38:508:53 6.7619damCOURT-SAINT-ETIENNE
155.542GERARD CHRISTOPHE46BEL4:38:334:38:508:53 6.76136homCOURT-SAINT-ETIENNE
156.465COLLE LUDOVIC40BEL5:17:175:17:3810:07 5.94137homSOIGNIES
DSQ386VANIERSCHOT PATRICK44BEL2:05:222:05:24homHASSELT
DSQ373LECOMTE CHRISTOPHE40BEL2:18:382:18:52homQUAREGNON
DSQ303PAULUS DAVID46BEL2:24:122:24:15homWAUDREZ
DNF258LEVEAU CORENTIN39BELhomWATERLOO
DNF: abandon; DSQ: disqualifié; Vitesse en km/h
25/06/2022 - 05:45 - 160 Inputs
ChronoRace - Electronic Timing SPRL
http://www.chronorace.be

Page 4 / 4